Location: Buchloe
(48.0161°N, 10.7316°E)
Time: 02:23:36
(UTC+02:00)

ISS - Pass Details

Date: 24 May 2018
Orbit: 402 x 407 km, 51.6° (Epoch: 26 May)

Event Time Altitude Azimuth Distance (km) Brightness Sun altitude
Rises 01:20:00 0° 288° (WNW) 2,319 0.2 -21.3°
Reaches altitude 10° 01:22:07 10° 294° (WNW) 1,458 -0.8 -21.2°
Maximum altitude 01:25:19 50° 12° (NNE) 523 -3.0 -21.2°
Enters shadow 01:27:53 14° 86° (E) 1,218 -1.3 -21.2°
